FW5816 Weather Reports


Display with metric or nautical units.
time (UTC)temp
F
wind
direction
speed
MPH
gust
MPH
rain 1hr
in
rain 24hr
in
rain mn
in
humidity
%
barometer
mb
20260902211020 95 269 1.0 5.0 0.00 0.00 0.00 54 1016.5
20260902210520 96 281 2.0 5.0 0.00 0.00 0.00 52 1016.6
20260902210035 95 277 1.0 4.0 0.00 0.00 0.00 51 1016.6
20260902205519 96 269 1.0 7.0 0.00 0.00 0.00 50 1016.7
20260902205017 96 246 2.0 7.0 0.00 0.00 0.00 50 1016.6
20260902204540 96 99 1.0 8.0 0.00 0.00 0.00 52 1016.6
20260902204017 95 272 3.0 10.0 0.00 0.00 0.00 52 1016.6
20260902203517 95 288 2.0 10.0 0.00 0.00 0.00 52 1016.8
20260902203038 96 293 4.0 10.0 0.00 0.00 0.00 51 1016.7
20260902202518 95 230 2.0 4.0 0.00 0.00 0.00 52 1016.7
20260902202020 95 294 3.0 4.0 0.00 0.00 0.00 52 1016.8
20260902201544 96 5 1.0 3.0 0.00 0.00 0.00 51 1016.8
20260902201020 97 143 0.0 4.0 0.00 0.00 0.00 49 1016.9
20260902200518 97 129 1.0 4.0 0.00 0.00 0.00 51 1016.9
20260902200051 96 84 1.0 4.0 0.00 0.00 0.00 54 1017.0
20260902195520 95 262 1.0 4.0 0.00 0.00 0.00 53 1017.1
20260902195019 95 248 2.0 6.0 0.00 0.00 0.00 53 1017.2
20260902194538 96 288 2.0 7.0 0.00 0.00 0.00 52 1017.2
20260902194018 96 288 2.0 7.0 0.00 0.00 0.00 51 1017.2
20260902193518 96 297 4.0 7.0 0.00 0.00 0.00 50 1017.3
20260902193037 97 4 1.0 4.0 0.00 0.00 0.00 51 1017.2
20260902192518 96 66 0.0 7.0 0.00 0.00 0.00 52 1017.4
20260902192019 94 0 2.0 7.0 0.00 0.00 0.00 55 1017.5
20260902191538 95 273 1.0 6.0 0.00 0.00 0.00 54 1017.6
20260902191019 95 140 2.0 6.0 0.00 0.00 0.00 53 1017.6
20260902190519 95 153 3.0 6.0 0.00 0.00 0.00 55 1017.7
20260902190052 95 207 1.0 6.0 0.00 0.00 0.00 55 1017.6
20260902185517 94 0 1.0 6.0 0.00 0.00 0.00 54 1017.7
20260902185019 95 292 3.0 8.0 0.00 0.00 0.00 53 1017.8
20260902184535 95 210 2.0 8.0 0.00 0.00 0.00 54 1017.9
20260902184018 95 227 1.0 3.0 0.00 0.00 0.00 54 1017.8
20260902183516 94 37 1.0 5.0 0.00 0.00 0.00 56 1017.9
20260902183037 94 221 1.0 5.0 0.00 0.00 0.00 57 1017.9
20260902182517 93 248 1.0 5.0 0.00 0.00 0.00 57 1017.9
20260902182019 94 3 1.0 5.0 0.00 0.00 0.00 56 1018.0
20260902181536 94 323 1.0 6.0 0.00 0.00 0.00 57 1017.9
20260902181019 95 16 2.0 6.0 0.00 0.00 0.00 57 1017.9
20260902180520 94 255 3.0 6.0 0.00 0.00 0.00 56 1018.0
20260902180037 94 276 2.0 5.0 0.00 0.00 0.00 57 1018.1
20260902175521 94 226 2.0 6.0 0.00 0.00 0.00 56 1018.0
20260902175020 95 324 1.0 6.0 0.00 0.00 0.00 55 1018.1
20260902174535 96 286 3.0 6.0 0.00 0.00 0.00 54 1018.2
20260902174018 95 277 1.0 5.0 0.00 0.00 0.00 55 1018.2
20260902173520 95 298 0.0 8.0 0.00 0.00 0.00 55 1018.3
20260902173036 94 283 3.0 8.0 0.00 0.00 0.00 55 1018.3
20260902172519 94 274 1.0 6.0 0.00 0.00 0.00 56 1018.5
20260902172020 94 15 1.0 8.0 0.00 0.00 0.00 56 1018.6
20260902171537 94 147 3.0 8.0 0.00 0.00 0.00 56 1018.7
20260902171023 94 298 3.0 7.0 0.00 0.00 0.00 55 1018.7
20260902170518 93 238 3.0 7.0 0.00 0.00 0.00 56 1018.8
20260902170038 93 276 2.0 5.0 0.00 0.00 0.00 57 1018.8
20260902165520 93 236 1.0 7.0 0.00 0.00 0.00 56 1018.8
20260902165020 93 267 3.0 7.0 0.00 0.00 0.00 58 1019.0
20260902164538 93 198 4.0 8.0 0.00 0.00 0.00 57 1018.9
20260902164019 93 83 2.0 8.0 0.00 0.00 0.00 57 1018.9
20260902163516 93 272 1.0 6.0 0.00 0.00 0.00 57 1019.1
20260902163035 92 170 3.0 6.0 0.00 0.00 0.00 58 1019.3
20260902162518 92 288 2.0 5.0 0.00 0.00 0.00 59 1019.2
20260902162020 92 321 2.0 9.0 0.00 0.00 0.00 60 1019.1
20260902161543 91 288 4.0 9.0 0.00 0.00 0.00 60 1019.2
20260902161018 91 278 3.0 8.0 0.00 0.00 0.00 60 1019.3
20260902160522 91 256 4.0 9.0 0.00 0.00 0.00 60 1019.4
20260902160037 91 193 5.0 9.0 0.00 0.00 0.00 61 1019.2
20260902155517 91 201 3.0 9.0 0.00 0.00 0.00 60 1019.3
20260902155020 91 287 2.0 8.0 0.00 0.00 0.00 62 1019.4
20260902154536 90 274 2.0 8.0 0.00 0.00 0.00 64 1019.3
20260902154017 90 131 4.0 7.0 0.00 0.00 0.00 63 1019.3
20260902153517 90 271 2.0 8.0 0.00 0.00 0.00 64 1019.2
20260902153038 90 194 3.0 8.0 0.00 0.00 0.00 64 1019.2
20260902152517 90 262 2.0 6.0 0.00 0.00 0.00 64 1019.2
20260902152020 90 254 3.0 6.0 0.00 0.00 0.00 64 1019.2
20260902151536 90 240 1.0 4.0 0.00 0.00 0.00 66 1019.3
20260902151018 89 141 2.0 7.0 0.00 0.00 0.00 66 1019.3
20260902150521 89 290 3.0 7.0 0.00 0.00 0.00 66 1019.2
20260902150037 90 232 1.0 4.0 0.00 0.00 0.00 67 1019.2
20260902145518 89 348 1.0 5.0 0.00 0.00 0.00 68 1019.2
20260902145023 88 290 2.0 6.0 0.00 0.00 0.00 68 1019.3
20260902144535 88 223 2.0 6.0 0.00 0.00 0.00 68 1019.3
20260902144019 88 246 2.0 4.0 0.00 0.00 0.00 69 1019.4
20260902143516 87 264 1.0 4.0 0.00 0.00 0.00 70 1019.4
20260902143041 87 257 2.0 4.0 0.00 0.00 0.00 70 1019.4
20260902142520 86 281 1.0 5.0 0.00 0.00 0.00 71 1019.3
20260902142020 86 285 2.0 5.0 0.00 0.00 0.00 71 1019.4
20260902141538 86 271 2.0 5.0 0.00 0.00 0.00 72 1019.4
20260902141022 86 248 1.0 5.0 0.00 0.00 0.00 72 1019.3
20260902140518 85 266 1.0 3.0 0.00 0.00 0.00 73 1019.3
20260902140041 85 266 1.0 4.0 0.00 0.00 0.00 73 1019.4
20260902135520 85 258 1.0 4.0 0.00 0.00 0.00 74 1019.5
20260902135019 85 281 2.0 4.0 0.00 0.00 0.00 74 1019.4
20260902134537 85 0 1.0 2.0 0.00 0.00 0.00 74 1019.3
20260902134018 85 273 0.0 2.0 0.00 0.00 0.00 74 1019.3
20260902133518 85 0 0.0 2.0 0.00 0.00 0.00 75 1019.4
20260902133035 84 0 0.0 3.0 0.00 0.00 0.00 77 1019.3
20260902132524 83 278 1.0 3.0 0.00 0.00 0.00 76 1019.3
20260902132018 83 212 0.0 2.0 0.00 0.00 0.00 77 1019.3
20260902131539 83 212 0.0 2.0 0.00 0.00 0.00 78 1019.4
20260902131020 83 309 0.0 1.0 0.00 0.00 0.00 78 1019.4
20260902130520 83 0 0.0 0.0 0.00 0.00 0.00 78 1019.4
20260902130041 83 0 0.0 0.0 0.00 0.00 0.00 78 1019.4
20260902125517 83 0 0.0 0.0 0.00 0.00 0.00 78 1019.3
20260902125019 83 0 0.0 0.0 0.00 0.00 0.00 78 1019.3
20260902124534 83 0 0.0 0.0 0.00 0.00 0.00 78 1019.3
20260902124017 83 0 0.0 0.0 0.00 0.00 0.00 78 1019.2
20260902123519 82 0 0.0 0.0 0.00 0.00 0.00 80 1019.2
20260902123040 80 0 0.0 0.0 0.00 0.00 0.00 82 1019.1
20260902122521 79 0 0.0 0.0 0.00 0.00 0.00 83 1019.1
20260902122020 79 0 0.0 0.0 0.00 0.00 0.00 84 1019.0
20260902121539 78 0 0.0 0.0 0.00 0.00 0.00 86 1018.9
20260902121019 77 0 0.0 0.0 0.00 0.00 0.00 87 1018.9
20260902120518 76 0 0.0 0.0 0.00 0.00 0.00 87 1018.8
20260902120040 76 0 0.0 0.0 0.00 0.00 0.00 88 1018.9
20260902115519 75 0 0.0 0.0 0.00 0.00 0.00 89 1019.0
20260902115019 75 0 0.0 0.0 0.00 0.00 0.00 90 1018.9
20260902114538 74 0 0.0 0.0 0.00 0.00 0.00 91 1018.8
20260902114017 74 0 0.0 0.0 0.00 0.00 0.00 91 1018.7
20260902113518 73 0 0.0 0.0 0.00 0.00 0.00 92 1018.6
20260902113037 73 0 0.0 0.0 0.00 0.00 0.00 92 1018.6
20260902112520 73 0 0.0 0.0 0.00 0.00 0.00 92 1018.6
20260902112020 73 0 0.0 0.0 0.00 0.00 0.00 92 1018.5
20260902111545 73 0 0.0 0.0 0.00 0.00 0.00 92 1018.5
20260902111023 73 0 0.0 0.0 0.00 0.00 0.00 92 1018.6
20260902110518 73 0 0.0 0.0 0.00 0.00 0.00 92 1018.4
20260902110037 73 0 0.0 0.0 0.00 0.00 0.00 91 1018.4
20260902105521 73 0 0.0 0.0 0.00 0.00 0.00 92 1018.4
20260902105019 73 0 0.0 0.0 0.00 0.00 0.00 92 1018.3
20260902104542 73 0 0.0 0.0 0.00 0.00 0.00 92 1018.4
20260902104020 73 0 0.0 0.0 0.00 0.00 0.00 91 1018.3
20260902103518 73 0 0.0 0.0 0.00 0.00 0.00 91 1018.3
20260902103039 73 0 0.0 0.0 0.00 0.00 0.00 91 1018.2
20260902102519 73 0 0.0 0.0 0.00 0.00 0.00 91 1018.1
20260902102020 73 0 0.0 0.0 0.00 0.00 0.00 91 1018.1
20260902101540 73 0 0.0 0.0 0.00 0.00 0.00 91 1018.1
20260902101017 74 0 0.0 0.0 0.00 0.00 0.00 91 1018.1
20260902100518 74 0 0.0 0.0 0.00 0.00 0.00 90 1018.1
20260902100039 74 0 0.0 0.0 0.00 0.00 0.00 90 1018.1
20260902095519 74 0 0.0 0.0 0.00 0.00 0.00 90 1018.1
20260902095019 74 0 0.0 0.0 0.00 0.00 0.00 90 1018.0
20260902094545 74 0 0.0 0.0 0.00 0.00 0.00 90 1018.0
20260902094018 74 0 0.0 0.0 0.00 0.00 0.00 90 1017.9
20260902093517 74 0 0.0 0.0 0.00 0.00 0.00 90 1017.9
20260902093037 74 0 0.0 0.0 0.00 0.00 0.00 90 1017.8
20260902092519 74 0 0.0 0.0 0.00 0.00 0.00 90 1017.7
20260902092023 74 0 0.0 0.0 0.00 0.00 0.00 90 1017.7
20260902091545 74 0 0.0 0.0 0.00 0.00 0.00 89 1017.7
20260902091018 74 0 0.0 0.0 0.00 0.00 0.00 90 1017.5
20260902090516 74 0 0.0 0.0 0.00 0.00 0.00 90 1017.5
20260902090035 74 0 0.0 0.0 0.00 0.00 0.00 90 1017.5
20260902085519 74 0 0.0 0.0 0.00 0.00 0.00 90 1017.5
20260902085018 74 0 0.0 0.0 0.00 0.00 0.00 89 1017.4
20260902084536 74 0 0.0 0.0 0.00 0.00 0.00 90 1017.5
20260902084020 74 0 0.0 0.0 0.00 0.00 0.00 89 1017.5
20260902083520 74 0 0.0 0.0 0.00 0.00 0.00 89 1017.7
20260902083036 75 0 0.0 0.0 0.00 0.00 0.00 89 1017.5
20260902082517 75 0 0.0 0.0 0.00 0.00 0.00 89 1017.6
20260902082019 75 0 0.0 0.0 0.00 0.00 0.00 89 1017.5
20260902081547 75 0 0.0 0.0 0.00 0.00 0.00 89 1017.3
20260902081021 75 0 0.0 0.0 0.00 0.00 0.00 89 1017.4
20260902080519 75 0 0.0 0.0 0.00 0.00 0.00 89 1017.3
20260902080036 75 0 0.0 0.0 0.00 0.00 0.00 89 1017.4
20260902075519 75 0 0.0 0.0 0.00 0.00 0.00 89 1017.3
20260902075017 75 0 0.0 0.0 0.00 0.00 0.00 89 1017.4
20260902074537 75 0 0.0 0.0 0.00 0.00 0.00 88 1017.4
20260902074019 75 0 0.0 0.0 0.00 0.00 0.00 88 1017.3
20260902073520 75 0 0.0 0.0 0.00 0.00 0.00 88 1017.3
20260902073036 75 0 0.0 0.0 0.00 0.00 0.00 88 1017.3
20260902072516 75 0 0.0 0.0 0.00 0.00 0.00 88 1017.4
20260902072018 75 0 0.0 0.0 0.00 0.00 0.00 88 1017.3
20260902071535 75 0 0.0 0.0 0.00 0.00 0.00 88 1017.3
20260902071018 75 0 0.0 0.0 0.00 0.00 0.00 88 1017.4
20260902070520 75 0 0.0 0.0 0.00 0.00 0.00 88 1017.4
20260902070036 75 0 0.0 0.0 0.00 0.00 0.00 88 1017.3
20260902065521 75 0 0.0 0.0 0.00 0.00 0.00 88 1017.3
20260902065017 76 0 0.0 0.0 0.00 0.00 0.00 88 1017.2
20260902064539 76 0 0.0 0.0 0.00 0.00 0.00 88 1017.3
20260902064019 76 0 0.0 0.0 0.00 0.00 0.00 87 1017.4
20260902063520 76 0 0.0 0.0 0.00 0.00 0.00 87 1017.4
20260902063038 76 0 0.0 0.0 0.00 0.00 0.00 87 1017.4
20260902062519 76 0 0.0 0.0 0.00 0.00 0.00 87 1017.4
20260902062019 76 0 0.0 0.0 0.00 0.00 0.00 87 1017.5
20260902061544 76 0 0.0 0.0 0.00 0.00 0.00 87 1017.5
20260902061021 76 0 0.0 0.0 0.00 0.00 0.00 87 1017.4
20260902060517 76 0 0.0 0.0 0.00 0.00 0.00 87 1017.4
20260902060038 76 0 0.0 0.0 0.00 0.00 0.00 87 1017.5
20260902055526 76 0 0.0 0.0 0.00 0.00 0.00 86 1017.5
20260902055020 76 0 0.0 0.0 0.00 0.00 0.00 86 1017.5
20260902054538 76 0 0.0 0.0 0.00 0.00 0.00 87 1017.5
20260902054018 76 0 0.0 0.0 0.00 0.00 0.00 86 1017.6
20260902053519 76 0 0.0 0.0 0.00 0.00 0.00 86 1017.5
20260902053040 76 0 0.0 0.0 0.00 0.00 0.00 86 1017.5
20260902052522 76 0 0.0 0.0 0.00 0.00 0.00 86 1017.4
20260902052020 77 0 0.0 0.0 0.00 0.00 0.00 86 1017.4
20260902051538 77 0 0.0 0.0 0.00 0.00 0.00 86 1017.4
20260902051021 77 0 0.0 0.0 0.00 0.00 0.00 86 1017.4
20260902050519 77 0 0.0 0.0 0.00 0.00 0.00 86 1017.5
20260902050040 77 0 0.0 0.0 0.00 0.00 0.00 86 1017.5
20260902045519 77 0 0.0 0.0 0.00 0.00 0.00 86 1017.4
20260902045019 77 0 0.0 0.0 0.00 0.00 0.00 86 1017.4
20260902044538 77 0 0.0 0.0 0.00 0.00 0.00 86 1017.5
20260902044018 77 0 0.0 0.0 0.00 0.00 0.00 86 1017.5
20260902043519 77 0 0.0 0.0 0.00 0.00 0.00 86 1017.5
20260902043036 77 0 0.0 0.0 0.00 0.00 0.00 86 1017.5
20260902042518 77 0 0.0 0.0 0.00 0.00 0.00 85 1017.5
20260902042018 78 0 0.0 0.0 0.00 0.00 0.00 85 1017.5
20260902041539 78 0 0.0 0.0 0.00 0.00 0.00 85 1017.4
20260902041017 78 0 0.0 1.0 0.00 0.00 0.00 85 1017.5
20260902040519 78 309 0.0 1.0 0.00 0.00 0.00 86 1017.4
20260902040036 78 0 0.0 0.0 0.00 0.00 0.00 86 1017.4
20260902035518 78 0 0.0 0.0 0.00 0.00 0.00 87 1017.4
20260902035019 78 0 0.0 0.0 0.00 0.00 0.00 86 1017.4
20260902034536 78 0 0.0 0.0 0.00 0.00 0.00 87 1017.3
20260902034019 78 0 0.0 0.0 0.00 0.00 0.00 87 1017.3
20260902033517 78 0 0.0 0.0 0.00 0.00 0.00 86 1017.5
20260902033043 78 0 0.0 0.0 0.00 0.00 0.00 86 1017.5
20260902032522 78 0 0.0 0.0 0.00 0.00 0.00 84 1017.5
20260902032023 79 0 0.0 0.0 0.00 0.00 0.00 83 1017.5
20260902031538 79 0 0.0 0.0 0.00 0.00 0.00 82 1017.5
20260902031019 79 0 0.0 0.0 0.00 0.00 0.00 82 1017.5
20260902030519 79 0 0.0 0.0 0.00 0.00 0.00 81 1017.5
20260902030035 80 0 0.0 0.0 0.00 0.00 0.00 80 1017.5
20260902025518 80 0 0.0 0.0 0.00 0.00 0.00 79 1017.5
20260902025023 80 0 0.0 0.0 0.00 0.00 0.00 78 1017.5
20260902024537 80 0 0.0 0.0 0.00 0.00 0.00 78 1017.5
20260902024019 80 0 0.0 0.0 0.00 0.00 0.00 77 1017.5
20260902023519 80 0 0.0 0.0 0.00 0.00 0.00 76 1017.4
20260902023038 81 0 0.0 0.0 0.00 0.00 0.00 74 1017.4
20260902022517 81 0 0.0 0.0 0.00 0.00 0.00 74 1017.4
20260902022020 81 0 0.0 0.0 0.00 0.00 0.00 74 1017.4
20260902021546 81 0 0.0 0.0 0.00 0.00 0.00 73 1017.4
20260902021021 81 0 0.0 0.0 0.00 0.00 0.00 73 1017.4
20260902020520 82 0 0.0 0.0 0.00 0.00 0.00 73 1017.3
20260902020037 82 0 0.0 0.0 0.00 0.00 0.00 72 1017.3
20260902015517 82 0 0.0 0.0 0.00 0.00 0.00 71 1017.4
20260902015018 83 0 0.0 0.0 0.00 0.00 0.00 71 1017.3
20260902014539 83 0 0.0 0.0 0.00 0.00 0.00 70 1017.3
20260902014023 83 0 0.0 0.0 0.00 0.00 0.00 69 1017.4
20260902013519 83 0 0.0 0.0 0.00 0.00 0.00 68 1017.2
20260902013037 84 0 0.0 0.0 0.00 0.00 0.00 68 1017.4
20260902012519 84 0 0.0 0.0 0.00 0.00 0.00 69 1017.4
20260902012018 84 0 0.0 0.0 0.00 0.00 0.00 69 1017.2
20260902011539 84 0 0.0 0.0 0.00 0.00 0.00 69 1017.2
20260902011018 85 0 0.0 0.0 0.00 0.00 0.00 69 1017.0
20260902010518 85 0 0.0 0.0 0.00 0.00 0.00 69 1017.0
20260902010053 85 0 0.0 0.0 0.00 0.00 0.00 68 1016.9
20260902005520 86 0 0.0 0.0 0.00 0.00 0.00 68 1016.9
20260902005018 86 0 0.0 0.0 0.00 0.00 0.00 67 1016.8
20260902004544 87 0 0.0 0.0 0.00 0.00 0.00 66 1016.7
20260902004023 87 0 0.0 0.0 0.00 0.00 0.00 66 1016.8
20260902003519 88 0 0.0 0.0 0.00 0.00 0.00 64 1016.9
20260902003038 88 0 0.0 0.0 0.00 0.00 0.00 64 1016.8
20260902002520 89 0 0.0 0.0 0.00 0.00 0.00 63 1016.7
20260902002021 89 0 0.0 0.0 0.00 0.00 0.00 63 1016.7
20260902001535 90 0 0.0 1.0 0.00 0.00 0.00 61 1016.7
20260902001020 91 0 0.0 1.0 0.00 0.00 0.00 60 1016.8
20260902000519 92 309 0.0 0.0 0.00 0.00 0.00 58 1016.7
20260902000050 93 309 0.0 0.0 0.00 0.00 0.00 57 1016.8
20260901235520 94 0 0.0 0.0 0.00 0.00 0.00 55 1016.8
20260901235019 95 0 0.0 0.0 0.00 0.00 0.00 54 1016.9
20260901234603 95 0 0.0 0.0 0.00 0.00 0.00 54 1017.0
20260901234017 95 309 0.0 0.0 0.00 0.00 0.00 53 1017.0
20260901233520 95 0 0.0 0.0 0.00 0.00 0.00 52 1017.0
20260901233037 95 0 0.0 1.0 0.00 0.00 0.00 53 1017.0
20260901232517 95 0 0.0 1.0 0.00 0.00 0.00 53 1017.0
20260901232020 94 309 0.0 3.0 0.00 0.00 0.00 54 1017.1
20260901231546 94 309 1.0 4.0 0.00 0.00 0.00 54 1017.1
20260901231020 94 351 1.0 4.0 0.00 0.00 0.00 54 1017.2
20260901230520 95 37 2.0 4.0 0.00 0.00 0.00 51 1017.1
20260901230054 96 252 1.0 2.0 0.00 0.00 0.00 49 1017.0
20260901225518 97 248 0.0 2.0 0.00 0.00 0.00 49 1017.0
20260901225019 97 338 0.0 2.0 0.00 0.00 0.00 48 1017.1
20260901224538 97 0 0.0 1.0 0.00 0.00 0.00 51 1017.1
20260901224015 96 338 0.0 3.0 0.00 0.00 0.00 50 1017.1
20260901223516 95 15 1.0 3.0 0.00 0.00 0.00 51 1017.2
20260901223056 95 340 1.0 3.0 0.00 0.00 0.00 52 1017.1
20260901222520 95 275 1.0 3.0 0.00 0.00 0.00 54 1017.1
20260901222023 94 14 1.0 4.0 0.00 0.00 0.00 52 1017.0
20260901221537 94 283 1.0 4.0 0.00 0.00 0.00 52 1016.9
20260901221020 95 279 1.0 4.0 0.00 0.00 0.00 52 1016.9
20260901220518 95 347 1.0 3.0 0.00 0.00 0.00 52 1016.9
20260901220037 96 267 1.0 4.0 0.00 0.00 0.00 51 1017.0
20260901215519 95 267 0.0 5.0 0.00 0.00 0.00 50 1016.9
20260901215021 95 267 1.0 5.0 0.00 0.00 0.00 51 1016.8
20260901214539 96 291 2.0 5.0 0.00 0.00 0.00 50 1016.8
20260901214024 96 0 0.0 4.0 0.00 0.00 0.00 52 1016.8
20260901213517 95 340 1.0 4.0 0.00 0.00 0.00 52 1016.8
20260901213042 96 357 1.0 4.0 0.00 0.00 0.00 49 1016.8
20260901212517 96 359 1.0 4.0 0.00 0.00 0.00 51 1016.9
20260901212017 95 360 0.0 4.0 0.00 0.00 0.00 51 1016.7
20260901211545 96 359 1.0 4.0 0.00 0.00 0.00 51 1016.8